Location: Tucson
(32.2217°N, 110.9265°W)
Time: 06:04:41
(UTC-07:00)

Transit 2A - Visible Passes

Search period start: 25 October 2021 00:00
Search period end: 04 November 2021 00:00
Orbit: 593 x 965 km, 66.7° (Epoch: 24 October)

Date Brightness Start Highest point End Pass type
(mag) Time Alt. Az. Time Alt. Az. Time Alt. Az.
25 Oct 7.6 17:53:54 10° N 17:58:40 21° NE 18:03:22 10° E visible
25 Oct 6.9 19:36:03 10° NNW 19:42:20 61° WSW 19:47:25 15° S visible
26 Oct 6.4 19:01:45 10° NNW 19:08:10 88° WSW 19:14:24 10° SSE visible
26 Oct 9.3 20:49:13 10° W 20:50:29 11° W 20:51:46 10° WSW visible
27 Oct 6.4 18:27:34 10° NNW 18:33:56 65° ENE 18:40:08 10° SE visible
27 Oct 9.0 20:12:38 10° WNW 20:16:33 17° WSW 20:20:25 10° SW visible
28 Oct 6.8 17:53:32 10° NNW 17:59:38 45° ENE 18:05:36 10° SE visible
28 Oct 8.5 19:37:28 10° NW 19:42:34 26° WSW 19:47:34 10° SSW visible
29 Oct 7.9 19:02:43 10° NW 19:08:33 38° WSW 19:14:11 10° S visible
30 Oct 7.2 18:28:13 10° NW 18:34:27 57° WSW 18:40:28 10° S visible
31 Oct 6.6 17:53:52 10° NNW 18:00:17 82° WSW 18:06:29 10° SSE visible
01 Nov 9.4 19:05:03 10° WNW 19:08:37 16° WSW 19:12:08 10° SW visible
02 Nov 9.5 06:14:41 10° SE 06:17:10 14° ESE 06:19:44 10° ENE visible
02 Nov 9.0 18:29:44 10° NW 18:34:39 24° WSW 18:39:26 10° SSW visible
03 Nov 8.4 17:54:55 10° NW 18:00:37 35° WSW 18:06:08 10° S visible
